[Iaude] MPEC F92: 2018 FM3 [a=1.01,e=0.09,i=4.6,H=27.2]

mpec at mpcdb1.cfa.harvard.edu mpec at mpcdb1.cfa.harvard.edu
Thu Mar 22 09:53:16 EDT 2018


M.P.E.C. 2018-F92                                Issued 2018 Mar. 22, 13:50 UT
 
     The Minor Planet Electronic Circulars contain information on unusual
         minor planets and routine data on comets.  They are published
    on behalf of Division F of the International Astronomical Union by the
          Minor Planet Center, Smithsonian Astrophysical Observatory,
                          Cambridge, MA 02138, U.S.A.

             Prepared using the Tamkin Foundation Computer Network

                              MPC at CFA.HARVARD.EDU
            URL https://www.minorplanetcenter.net/    ISSN 1523-6714


                                   2018 FM3
 
Observations:
     K18F03M* C2018 03 20.26709 11 27 55.27 -05 07 20.0          19.8 GUEF092G96
     K18F03M  C2018 03 20.27220 11 27 55.31 -05 06 21.2          20.0 GUEF092G96
     K18F03M  C2018 03 20.27732 11 27 55.38 -05 05 22.1          20.0 GUEF092G96
     K18F03M  C2018 03 20.28244 11 27 55.41 -05 04 23.9          19.8 GUEF092G96
     K18F03M  C2018 03 20.32008911 27 54.73 -04 57 18.3          19.5 GUEF092H01
     K18F03M  C2018 03 20.32466111 27 54.80 -04 56 25.9          19.7 GUEF092H01
     K18F03M  C2018 03 20.33668311 27 54.99 -04 54 07.9          19.8 GUEF092H01
     K18F03M  C2018 03 20.34064211 27 55.06 -04 53 22.4          19.8 GUEF092H01
     K18F03M  C2018 03 20.36737 11 27 56.49 -04 48 10.0          20.0 GUEF092I52
     K18F03M  C2018 03 20.36833 11 27 56.53 -04 47 58.6          19.9 GUEF092I52
     K18F03M  C2018 03 20.36930 11 27 56.52 -04 47 47.7          19.9 GUEF092I52
     K18F03M  C2018 03 20.37026 11 27 56.55 -04 47 36.7          19.7 GUEF092I52
     K18F03M KC2018 03 20.39887 11 28 18.43 -04 35 37.5          19.9 RUEF092474
     K18F03M KC2018 03 20.40127 11 28 18.51 -04 35 11.0          19.8 RUEF092474
     K18F03M KC2018 03 20.40367 11 28 18.65 -04 34 43.8          19.7 RUEF092474
     K18F03M KC2018 03 20.40487 11 28 18.70 -04 34 30.6          19.9 RUEF092474
     K18F03M  C2018 03 21.00222 11 29 16.13 -02 51 50.4          19.7 VSEF092033
     K18F03M  C2018 03 21.00390 11 29 16.20 -02 51 32.3          20.2 VSEF092033
     K18F03M  C2018 03 21.00557 11 29 16.27 -02 51 14.1          20.0 VSEF092033
     K18F03M  C2018 03 21.00725 11 29 16.33 -02 50 56.1          20.7 VSEF092033
     K18F03M |C2018 03 21.19119 11 29 40.84 -02 11 35.5          20.2 VuEF092807
     K18F03M |C2018 03 21.19391 11 29 40.83 -02 11 06.9          20.0 VuEF092807
     K18F03M |C2018 03 21.19701 11 29 40.86 -02 10 33.8          20.1 VuEF092807
     K18F03M  C2018 03 21.23682 11 29 53.08 -02 08 47.4          19.7 GUEF092I52
     K18F03M  C2018 03 21.23723 11 29 53.11 -02 08 43.2          19.4 GUEF092I52
     K18F03M  C2018 03 21.23765 11 29 53.08 -02 08 38.9          19.8 GUEF092I52
     K18F03M  C2018 03 21.23859 11 29 53.12 -02 08 29.0          20.0 GUEF092I52
     K18F03M  C2018 03 21.82318 11 31 02.08 -00 28 54.5          19.0 VSEF092033
     K18F03M KC2018 03 21.89397 11 31 05.18 -00 16 44.8          20.5 VSEF092L01
     K18F03M KC2018 03 21.89970 11 31 05.30 -00 15 47.0          20.4 VSEF092L01
     K18F03M KC2018 03 21.90257 11 31 05.36 -00 15 17.6          20.4 VSEF092L01
     K18F03M KC2018 03 21.90616 11 31 05.52 -00 14 42.5          20.2 VSEF092L01
     K18F03M KC2018 03 21.90755 11 31 06.56 -00 14 32.0          19.1 GUEF092587
     K18F03M KC2018 03 21.90881 11 31 05.58 -00 14 16.3          20.3 VSEF092L01
     K18F03M KC2018 03 21.91127 11 31 06.65 -00 13 54.7                UEF092587
     K18F03M KC2018 03 21.91181 11 31 06.67 -00 13 49.1                UEF092587
     K18F03M  C2018 03 22.02390 11 31 09.36 +00 04 29.5          19.8 VSEF092033
     K18F03M  C2018 03 22.23871 11 31 43.32 +00 40 49.0          19.9 GUEF092I52
     K18F03M  C2018 03 22.23912 11 31 43.35 +00 40 53.2          19.9 GUEF092I52
     K18F03M  C2018 03 22.23954 11 31 43.34 +00 40 57.0          19.9 GUEF092I52
     K18F03M  C2018 03 22.23995 11 31 43.32 +00 41 01.1          19.8 GUEF092I52
 
Observer details:
033 Karl Schwarzschild Observatory, Tautenburg.  Observers F. Ludwig,
    B. Stecklum.  Measurer B. Stecklum.  1.34-m f/3 Schmidt + CCD.
474 Mount John Observatory, Lake Tekapo.  Observers A. C. Gilmore,
    P. M. Kilmartin.  Measurer P. M. Kilmartin.  1.0-m f/7.7 reflector + CCD.
587 Sormano.  Observers A. Fumagalli, F. Manca, P. Sicoli, A. Testa.  Measurer
    P. Sicoli.  0.5-m f/6.8 reflector + CCD.
807 Cerro Tololo.  Observers T. Linder, R. Holmes.  0.61-m f/6.5 astrograph
    + CCD.
G96 Mt. Lemmon Survey.  Observer J. A. Johnson.  Measurers B. M. Africano,
    E. J. Christensen, D. C. Fuls, A. R. Gibbs, A. D. Grauer, J. A. Johnson,
    R. A. Kowalski, S. M. Larson, G. J. Leonard, R. L. Seaman, F. C. Shelly.
    1.5-m reflector + 10K CCD.
H01 Magdalena Ridge Observatory, Socorro.  Observers W. H. Ryan, E. V. Ryan.
    Measurer W. H. Ryan.  2.4-m f/8.9 reflector + CCD.
I52 Steward Observatory, Mt. Lemmon Station.  Observers R. A. Kowalski,
    B. M. Africano, E. J. Christensen.  Measurers B. M. Africano,
    E. J. Christensen, D. C. Fuls, A. R. Gibbs, A. D. Grauer, J. A. Johnson,
    R. A. Kowalski, S. M. Larson, G. J. Leonard, R. L. Seaman, F. C. Shelly.
    1.0-m reflector + CCD.
L01 Visnjan Observatory, Tican.  Observer K. Korlevic.  1.0-m f/2.9 reflector
    + CCD.
 
Orbital elements:
2018 FM3                                                 Earth MOID = 0.0171 AU
Epoch 2018 Mar. 23.0 TT = JDT 2458200.5                 MPC
M  94.58021              (2000.0)            P               Q
n   0.96850539     Peri.  255.14250     +0.22517860     -0.97431410
a   1.0117379      Node   181.84996     +0.92177053     +0.21388927
e   0.0906497      Incl.    4.57266     +0.31564805     +0.07045147
P   1.02           H   27.2           G   0.15           U   6
Residuals in seconds of arc
180320 G96  0.1+  0.2-    180320 474  0.1+  0.0     180321 L01  0.1-  0.2-
180320 G96  0.1-  0.0     180320 474  0.1+  0.4-    180321 L01  0.4-  0.2+
180320 G96  0.2+  0.3+    180321 033  0.0   0.5+    180321 L01  0.5-  0.9+
180320 G96  0.0   0.2-    180321 033  0.0   0.4+    180321 L01  0.6+  0.1+
180320 H01  0.0   0.0     180321 033  0.1+  0.5+    180321 587  0.4+  1.2-
180320 H01  0.0   0.0     180321 033  0.0   0.3+    180321 L01  0.5+  0.3-
180320 H01  0.0   0.0     180321 807  0.0   0.2+    180321 587  0.3+  1.1-
180320 H01  0.0   0.1+    180321 807  0.3-  0.2-    180321 587  0.4+  0.9-
180320 I52  0.0   0.3-    180321 807  0.0   0.0     180322 033  0.4-  0.5-
180320 I52  0.3+  0.1+    180321 I52  0.3-  0.1+    180322 I52  0.2-  0.4+
180320 I52  0.2-  0.1-    180321 I52  0.1+  0.0     180322 I52  0.2+  0.6+
180320 I52  0.0   0.1-    180321 I52  0.4-  0.2-    180322 I52  0.0   0.3+
180320 474  0.2+  0.4+    180321 I52  0.0   0.2-    180322 I52  0.4-  0.4+
180320 474  0.3-  0.2-    180321 033  0.2+  0.5+

Ephemeris:
2018 FM3                 a,e,i = 1.01, 0.09, 5                   q = 0.9200
Date    TT    R. A. (2000) Decl.     Delta      r     Elong.  Phase     V
2018 02 20    02 54 24.5 -78 17 37   0.04115 0.9790    75.2   102.4    24.0
...
2018 03 07    10 28 16.5 -59 56 17   0.02428 1.0024   114.1    64.6    21.4
...
2018 03 15    11 14 13.5 -25 15 24   0.02325 1.0149   151.8    27.6    20.3
...
2018 03 21    11 29 19.9 -02 48 15   0.02841 1.0242   171.8     8.0    20.1
2018 03 22    11 31 12.3 +00 04 15   0.02966 1.0257   171.8     8.0    20.2
2018 03 23    11 32 57.6 +02 42 15   0.03100 1.0272   170.7     9.1    20.3
...
2018 03 29    11 41 42.0 +14 16 29   0.04042 1.0361   158.9    20.3    21.3
...
2018 04 06    11 50 33.1 +22 18 27   0.05536 1.0474   146.9    31.4    22.4
...
2018 04 21    12 05 02.3 +27 04 42   0.08755 1.0665   133.1    43.5    23.7

A. U. Tomatic                (C) Copyright 2018 MPC           M.P.E.C. 2018-F92



More information about the Iaude mailing list